Time,TemperatureF,DewpointF,PressureIn,WindDirection,WindDirectionDegrees,WindSpeedMPH,WindSpeedGustMPH,Humidity,HourlyPrecipIn,Conditions,Clouds,dailyrainin,SoftwareType,DateUTC
2013-01-13 00:00:00,12.8,7.7,30.28,ENE,68,0.0,0.9,80,0.00,,,0.00,WUHU216HW,2013-01-13 08:00:00,
2013-01-13 00:05:00,12.8,7.7,30.28,ENE,68,0.2,0.9,80,0.00,,,0.00,WUHU216HW,2013-01-13 08:05:00,
2013-01-13 00:10:00,12.6,7.6,30.27,ENE,68,0.4,0.9,80,0.00,,,0.00,WUHU216HW,2013-01-13 08:10:00,
2013-01-13 00:15:00,12.4,7.1,30.27,ENE,68,0.4,1.8,79,0.00,,,0.00,WUHU216HW,2013-01-13 08:15:00,
2013-01-13 00:20:00,12.2,6.9,30.27,ENE,68,0.0,1.8,79,0.00,,,0.00,WUHU216HW,2013-01-13 08:20:00,
2013-01-13 00:25:00,12.2,7.2,30.27,ENE,68,0.0,0.9,80,0.00,,,0.00,WUHU216HW,2013-01-13 08:25:00,
2013-01-13 00:30:00,12.2,7.2,30.27,ENE,68,0.2,0.4,80,0.00,,,0.00,WUHU216HW,2013-01-13 08:30:00,
2013-01-13 00:35:00,12.2,6.9,30.27,ENE,68,0.4,0.4,79,0.00,,,0.00,WUHU216HW,2013-01-13 08:35:00,
2013-01-13 00:40:00,12.1,7.3,30.27,East,90,0.4,0.7,81,0.00,,,0.00,WUHU216HW,2013-01-13 08:40:00,
2013-01-13 00:45:00,12.2,7.5,30.27,ENE,68,3.4,4.5,81,0.00,,,0.00,WUHU216HW,2013-01-13 08:45:00,
2013-01-13 00:50:00,12.6,8.1,30.28,East,90,2.7,4.5,82,0.00,,,0.00,WUHU216HW,2013-01-13 08:50:00,
2013-01-13 00:55:00,12.6,7.8,30.27,East,90,1.3,4.3,81,0.00,,,0.00,WUHU216HW,2013-01-13 08:55:00,
2013-01-13 01:00:00,12.4,7.7,30.28,East,90,2.0,4.3,81,0.00,,,0.00,WUHU216HW,2013-01-13 09:00:00,
2013-01-13 01:05:00,12.2,7.5,30.28,East,90,2.0,3.8,81,0.00,,,0.00,WUHU216HW,2013-01-13 09:05:00,
2013-01-13 01:10:00,11.7,6.9,30.28,East,90,1.8,3.8,81,0.00,,,0.00,WUHU216HW,2013-01-13 09:10:00,
2013-01-13 01:15:00,11.7,6.9,30.28,ENE,68,1.8,3.4,81,0.00,,,0.00,WUHU216HW,2013-01-13 09:15:00,
2013-01-13 01:20:00,11.7,6.9,30.28,ENE,68,0.2,2.7,81,0.00,,,0.00,WUHU216HW,2013-01-13 09:20:00,
2013-01-13 01:25:00,11.7,6.9,30.28,ENE,68,2.9,3.8,81,0.00,,,0.00,WUHU216HW,2013-01-13 09:25:00,
2013-01-13 01:30:00,11.7,6.9,30.28,ENE,68,1.1,4.0,81,0.00,,,0.00,WUHU216HW,2013-01-13 09:30:00,
2013-01-13 01:35:00,11.3,6.6,30.28,NE,45,1.6,4.0,81,0.00,,,0.00,WUHU216HW,2013-01-13 09:35:00,
2013-01-13 01:40:00,11.2,6.4,30.28,East,90,2.5,3.8,81,0.00,,,0.00,WUHU216HW,2013-01-13 09:40:00,
2013-01-13 01:45:00,11.2,6.4,30.28,NE,45,1.1,2.9,81,0.00,,,0.00,WUHU216HW,2013-01-13 09:45:00,
2013-01-13 01:50:00,11.0,6.2,30.29,NE,45,0.9,2.5,81,0.00,,,0.00,WUHU216HW,2013-01-13 09:50:00,
2013-01-13 01:55:00,11.0,6.2,30.29,NE,45,1.1,1.3,81,0.00,,,0.00,WUHU216HW,2013-01-13 09:55:00,
2013-01-13 02:00:00,10.8,6.0,30.29,NE,45,1.3,1.3,81,0.00,,,0.00,WUHU216HW,2013-01-13 10:00:00,
2013-01-13 02:05:00,10.6,5.9,30.29,NE,45,1.1,1.3,81,0.00,,,0.00,WUHU216HW,2013-01-13 10:05:00,
2013-01-13 02:10:00,10.6,5.9,30.29,NE,45,1.1,1.1,81,0.00,,,0.00,WUHU216HW,2013-01-13 10:10:00,
2013-01-13 02:15:00,10.4,5.7,30.29,NE,45,0.2,1.1,81,0.00,,,0.00,WUHU216HW,2013-01-13 10:15:00,
2013-01-13 02:20:00,10.4,5.7,30.29,NE,45,0.0,1.1,81,0.00,,,0.00,WUHU216HW,2013-01-13 10:20:00,
2013-01-13 02:25:00,10.4,5.7,30.30,NE,45,0.2,0.4,81,0.00,,,0.00,WUHU216HW,2013-01-13 10:25:00,
2013-01-13 02:30:00,10.4,5.4,30.30,NE,45,0.0,0.4,80,0.00,,,0.00,WUHU216HW,2013-01-13 10:30:00,
2013-01-13 02:35:00,10.3,5.2,30.29,NE,45,0.0,0.4,80,0.00,,,0.00,WUHU216HW,2013-01-13 10:35:00,
2013-01-13 02:40:00,10.1,5.0,30.30,NE,45,0.2,0.4,80,0.00,,,0.00,WUHU216HW,2013-01-13 10:40:00,
2013-01-13 02:45:00,9.7,4.8,30.30,NE,45,0.4,1.1,80,0.00,,,0.00,WUHU216HW,2013-01-13 10:45:00,
2013-01-13 02:50:00,9.7,5.1,30.31,ENE,68,1.1,1.6,81,0.00,,,0.00,WUHU216HW,2013-01-13 10:50:00,
2013-01-13 02:55:00,9.9,5.2,30.31,ENE,68,0.9,1.8,81,0.00,,,0.00,WUHU216HW,2013-01-13 10:55:00,
2013-01-13 03:00:00,10.1,5.3,30.32,ENE,68,0.0,1.8,81,0.00,,,0.00,WUHU216HW,2013-01-13 11:00:00,
2013-01-13 03:05:00,10.1,5.0,30.32,ENE,68,0.0,1.1,80,0.00,,,0.00,WUHU216HW,2013-01-13 11:05:00,
2013-01-13 03:10:00,10.1,5.0,30.31,ENE,68,0.0,0.4,80,0.00,,,0.00,WUHU216HW,2013-01-13 11:10:00,
2013-01-13 03:15:00,9.9,5.0,30.30,ENE,68,0.2,0.4,80,0.00,,,0.00,WUHU216HW,2013-01-13 11:15:00,
2013-01-13 03:20:00,9.9,5.0,30.31,ENE,68,0.0,0.4,80,0.00,,,0.00,WUHU216HW,2013-01-13 11:20:00,
2013-01-13 03:25:00,9.7,4.8,30.32,ENE,68,0.0,0.2,80,0.00,,,0.00,WUHU216HW,2013-01-13 11:25:00,
2013-01-13 03:30:00,9.2,4.8,30.32,ENE,68,0.4,0.4,82,0.00,,,0.00,WUHU216HW,2013-01-13 11:30:00,
2013-01-13 03:35:00,9.0,4.6,30.32,ENE,68,0.2,0.7,82,0.00,,,0.00,WUHU216HW,2013-01-13 11:35:00,
2013-01-13 03:40:00,9.0,4.6,30.31,ENE,68,0.4,0.7,82,0.00,,,0.00,WUHU216HW,2013-01-13 11:40:00,
2013-01-13 03:45:00,9.4,5.0,30.31,ENE,68,0.2,0.7,82,0.00,,,0.00,WUHU216HW,2013-01-13 11:45:00,
2013-01-13 03:50:00,9.4,4.7,30.31,ENE,68,0.0,1.1,81,0.00,,,0.00,WUHU216HW,2013-01-13 11:50:00,
2013-01-13 03:55:00,9.5,4.9,30.31,ENE,68,1.1,1.1,81,0.00,,,0.00,WUHU216HW,2013-01-13 11:55:00,
2013-01-13 04:00:00,9.5,4.9,30.30,ENE,68,0.9,1.1,81,0.00,,,0.00,WUHU216HW,2013-01-13 12:00:00,
2013-01-13 04:05:00,9.5,4.9,30.30,ENE,68,0.4,1.1,81,0.00,,,0.00,WUHU216HW,2013-01-13 12:05:00,
2013-01-13 04:10:00,9.5,4.9,30.30,ENE,68,0.2,0.9,81,0.00,,,0.00,WUHU216HW,2013-01-13 12:10:00,
2013-01-13 04:15:00,9.4,4.7,30.30,ENE,68,0.0,0.4,81,0.00,,,0.00,WUHU216HW,2013-01-13 12:15:00,
2013-01-13 04:20:00,9.4,4.4,30.30,ENE,68,0.0,0.4,80,0.00,,,0.00,WUHU216HW,2013-01-13 12:20:00,
2013-01-13 04:25:00,9.4,4.4,30.30,ENE,68,0.0,0.4,80,0.00,,,0.00,WUHU216HW,2013-01-13 12:25:00,
2013-01-13 04:30:00,9.0,4.3,30.30,ENE,68,0.0,0.0,81,0.00,,,0.00,WUHU216HW,2013-01-13 12:30:00,
2013-01-13 04:35:00,8.5,4.2,30.30,ENE,68,0.0,0.0,82,0.00,,,0.00,WUHU216HW,2013-01-13 12:35:00,
2013-01-13 04:40:00,8.3,4.0,30.29,ENE,68,0.0,0.2,82,0.00,,,0.00,WUHU216HW,2013-01-13 12:40:00,
2013-01-13 04:45:00,8.5,4.2,30.29,NNE,23,0.4,1.1,82,0.00,,,0.00,WUHU216HW,2013-01-13 12:45:00,
2013-01-13 04:50:00,8.5,4.2,30.29,NE,45,1.8,1.8,82,0.00,,,0.00,WUHU216HW,2013-01-13 12:50:00,
2013-01-13 04:55:00,8.5,4.2,30.29,ENE,68,1.3,2.5,82,0.00,,,0.00,WUHU216HW,2013-01-13 12:55:00,
2013-01-13 05:00:00,8.6,4.3,30.28,NE,45,2.0,2.5,82,0.00,,,0.00,WUHU216HW,2013-01-13 13:00:00,
2013-01-13 05:04:00,8.6,4.3,30.28,NE,45,0.2,2.0,82,0.00,,,0.00,WUHU216HW,2013-01-13 13:04:00,
2013-01-13 05:09:00,8.6,4.3,30.29,NE,45,1.6,3.1,82,0.00,,,0.00,WUHU216HW,2013-01-13 13:09:00,
2013-01-13 05:14:00,8.8,4.4,30.28,ENE,68,0.9,3.1,82,0.00,,,0.00,WUHU216HW,2013-01-13 13:14:00,
2013-01-13 05:19:00,8.6,4.3,30.28,NNE,23,1.6,2.7,82,0.00,,,0.00,WUHU216HW,2013-01-13 13:19:00,
2013-01-13 05:24:00,8.8,4.4,30.28,NE,45,0.7,2.7,82,0.00,,,0.00,WUHU216HW,2013-01-13 13:24:00,
2013-01-13 05:29:00,8.8,4.2,30.28,NNE,23,1.1,2.0,81,0.00,,,0.00,WUHU216HW,2013-01-13 13:29:00,
2013-01-13 05:34:00,8.5,3.9,30.28,NNE,23,0.7,2.0,81,0.00,,,0.00,WUHU216HW,2013-01-13 13:34:00,
2013-01-13 05:39:00,8.5,3.9,30.28,NE,45,1.3,1.6,81,0.00,,,0.00,WUHU216HW,2013-01-13 13:39:00,
2013-01-13 05:44:00,8.3,3.7,30.27,NE,45,1.3,2.0,81,0.00,,,0.00,WUHU216HW,2013-01-13 13:44:00,
2013-01-13 05:49:00,8.3,3.7,30.27,NE,45,0.4,2.0,81,0.00,,,0.00,WUHU216HW,2013-01-13 13:49:00,
2013-01-13 05:54:00,8.1,3.5,30.27,NE,45,2.2,3.1,81,0.00,,,0.00,WUHU216HW,2013-01-13 13:54:00,
2013-01-13 05:59:00,8.1,3.5,30.27,NE,45,0.9,3.1,81,0.00,,,0.00,WUHU216HW,2013-01-13 13:59:00,
2013-01-13 06:04:00,7.9,3.3,30.27,NNE,23,0.2,2.7,81,0.00,,,0.00,WUHU216HW,2013-01-13 14:04:00,
2013-01-13 06:09:00,7.9,3.3,30.27,NNE,23,0.9,2.7,81,0.00,,,0.00,WUHU216HW,2013-01-13 14:09:00,
2013-01-13 06:14:00,7.7,3.2,30.27,NNE,23,0.9,1.8,81,0.00,,,0.00,WUHU216HW,2013-01-13 14:14:00,
2013-01-13 06:19:00,7.7,3.2,30.27,NNE,23,0.4,2.2,81,0.00,,,0.00,WUHU216HW,2013-01-13 14:19:00,
2013-01-13 06:24:00,7.7,3.2,30.26,ENE,68,1.8,2.5,81,0.00,,,0.00,WUHU216HW,2013-01-13 14:24:00,
2013-01-13 06:29:00,7.6,3.0,30.26,NE,45,0.9,2.9,81,0.00,,,0.00,WUHU216HW,2013-01-13 14:29:00,
2013-01-13 06:34:00,7.6,3.0,30.26,NE,45,0.7,2.9,81,0.00,,,0.00,WUHU216HW,2013-01-13 14:34:00,
2013-01-13 06:39:00,7.6,3.0,30.26,NE,45,0.2,2.7,81,0.00,,,0.00,WUHU216HW,2013-01-13 14:39:00,
2013-01-13 06:44:00,7.6,3.0,30.26,NE,45,0.7,2.7,81,0.00,,,0.00,WUHU216HW,2013-01-13 14:44:00,
2013-01-13 06:49:00,7.6,3.0,30.26,ENE,68,0.4,2.2,81,0.00,,,0.00,WUHU216HW,2013-01-13 14:49:00,
2013-01-13 06:54:00,7.6,3.0,30.26,ENE,68,0.2,2.2,81,0.00,,,0.00,WUHU216HW,2013-01-13 14:54:00,
2013-01-13 06:59:00,7.6,3.0,30.28,ENE,68,0.2,1.1,81,0.00,,,0.00,WUHU216HW,2013-01-13 14:59:00,
2013-01-13 07:04:00,7.6,3.0,30.28,ENE,68,0.4,1.3,81,0.00,,,0.00,WUHU216HW,2013-01-13 15:04:00,
2013-01-13 07:09:00,7.6,3.0,30.29,NE,45,0.9,2.2,81,0.00,,,0.00,WUHU216HW,2013-01-13 15:09:00,
2013-01-13 07:14:00,7.6,3.0,30.29,NE,45,0.7,2.2,81,0.00,,,0.00,WUHU216HW,2013-01-13 15:14:00,
2013-01-13 07:19:00,7.6,3.0,30.29,ENE,68,2.0,2.0,81,0.00,,,0.00,WUHU216HW,2013-01-13 15:19:00,
2013-01-13 07:24:00,7.6,3.0,30.29,ENE,68,0.7,2.0,81,0.00,,,0.00,WUHU216HW,2013-01-13 15:24:00,
2013-01-13 07:29:00,7.6,2.7,30.30,NE,45,2.7,2.7,80,0.00,,,0.00,WUHU216HW,2013-01-13 15:29:00,
2013-01-13 07:34:00,7.6,2.7,30.29,NNE,23,1.1,3.1,80,0.00,,,0.00,WUHU216HW,2013-01-13 15:34:00,
2013-01-13 07:39:00,7.6,2.7,30.29,NNE,23,1.8,3.1,80,0.00,,,0.00,WUHU216HW,2013-01-13 15:39:00,
2013-01-13 07:44:00,7.6,2.7,30.29,ENE,68,0.4,2.0,80,0.00,,,0.00,WUHU216HW,2013-01-13 15:44:00,
2013-01-13 07:49:00,7.6,2.7,30.30,ENE,68,0.4,2.0,80,0.00,,,0.00,WUHU216HW,2013-01-13 15:49:00,
2013-01-13 07:54:00,7.6,2.7,30.30,NE,45,0.2,1.1,80,0.00,,,0.00,WUHU216HW,2013-01-13 15:54:00,
2013-01-13 07:59:00,7.4,2.5,30.30,NE,45,0.2,1.1,80,0.00,,,0.00,WUHU216HW,2013-01-13 15:59:00,
2013-01-13 08:04:00,7.6,2.7,30.31,NE,45,0.0,1.1,80,0.00,,,0.00,WUHU216HW,2013-01-13 16:04:00,
2013-01-13 08:09:00,7.6,2.7,30.31,ENE,68,0.9,0.9,80,0.00,,,0.00,WUHU216HW,2013-01-13 16:09:00,
2013-01-13 08:14:00,7.6,2.7,30.30,NE,45,0.4,1.3,80,0.00,,,0.00,WUHU216HW,2013-01-13 16:14:00,
2013-01-13 08:19:00,7.6,2.7,30.30,NE,45,1.3,1.3,80,0.00,,,0.00,WUHU216HW,2013-01-13 16:19:00,
2013-01-13 08:24:00,7.9,3.1,30.31,NNE,23,0.0,2.5,80,0.00,,,0.00,WUHU216HW,2013-01-13 16:24:00,
2013-01-13 08:29:00,7.9,3.1,30.31,NE,45,4.7,4.7,80,0.00,,,0.00,WUHU216HW,2013-01-13 16:29:00,
2013-01-13 08:34:00,8.1,3.0,30.32,ENE,68,1.8,4.7,79,0.00,,,0.00,WUHU216HW,2013-01-13 16:34:00,
2013-01-13 08:39:00,8.3,3.2,30.32,ENE,68,2.2,4.7,79,0.00,,,0.00,WUHU216HW,2013-01-13 16:39:00,
2013-01-13 08:44:00,8.5,3.1,30.33,NE,45,3.6,4.5,78,0.00,,,0.00,WUHU216HW,2013-01-13 16:44:00,
2013-01-13 08:49:00,8.8,3.3,30.34,NE,45,2.5,4.7,78,0.00,,,0.00,WUHU216HW,2013-01-13 16:49:00,
2013-01-13 08:54:00,8.8,3.7,30.35,ENE,68,3.4,4.7,79,0.00,,,0.00,WUHU216HW,2013-01-13 16:54:00,
2013-01-13 08:59:00,9.0,3.5,30.36,NE,45,1.6,3.8,78,0.00,,,0.00,WUHU216HW,2013-01-13 16:59:00,
2013-01-13 09:04:00,9.2,3.7,30.36,NE,45,4.3,4.7,78,0.00,,,0.00,WUHU216HW,2013-01-13 17:04:00,
2013-01-13 09:09:00,9.4,3.6,30.37,NNE,23,3.4,4.7,77,0.00,,,0.00,WUHU216HW,2013-01-13 17:09:00,
2013-01-13 09:14:00,9.5,3.7,30.36,North,0,2.5,4.3,77,0.00,,,0.00,WUHU216HW,2013-01-13 17:14:00,
2013-01-13 09:19:00,9.7,3.9,30.36,NE,45,2.5,4.0,77,0.00,,,0.00,WUHU216HW,2013-01-13 17:19:00,
2013-01-13 09:24:00,10.3,4.4,30.35,NE,45,1.8,3.4,77,0.00,,,0.00,WUHU216HW,2013-01-13 17:24:00,
2013-01-13 09:29:00,10.6,4.7,30.36,NE,45,1.8,3.4,77,0.00,,,0.00,WUHU216HW,2013-01-13 17:29:00,
2013-01-13 09:34:00,11.0,5.0,30.35,NNE,23,0.7,2.7,77,0.00,,,0.00,WUHU216HW,2013-01-13 17:34:00,
2013-01-13 09:39:00,11.5,5.3,30.35,NNE,23,3.4,4.7,76,0.00,,,0.00,WUHU216HW,2013-01-13 17:39:00,
2013-01-13 09:44:00,11.9,5.4,30.35,ENE,68,1.8,4.7,75,0.00,,,0.00,WUHU216HW,2013-01-13 17:44:00,
2013-01-13 09:49:00,12.4,6.2,30.35,ENE,68,4.3,4.7,76,0.00,,,0.00,WUHU216HW,2013-01-13 17:49:00,
2013-01-13 09:54:00,13.1,6.9,30.35,NE,45,2.7,4.7,76,0.00,,,0.00,WUHU216HW,2013-01-13 17:54:00,
2013-01-13 09:59:00,13.7,6.9,30.35,NNE,23,2.5,4.3,74,0.00,,,0.00,WUHU216HW,2013-01-13 17:59:00,
2013-01-13 10:04:00,14.0,7.0,30.35,North,0,3.1,4.0,73,0.00,,,0.00,WUHU216HW,2013-01-13 18:04:00,
2013-01-13 10:09:00,14.6,7.7,30.35,NE,45,1.6,4.0,74,0.00,,,0.00,WUHU216HW,2013-01-13 18:09:00,
2013-01-13 10:14:00,15.5,8.7,30.35,East,90,4.0,4.0,74,0.00,,,0.00,WUHU216HW,2013-01-13 18:14:00,
2013-01-13 10:19:00,16.4,9.2,30.35,East,90,2.2,4.0,73,0.00,,,0.00,WUHU216HW,2013-01-13 18:19:00,
2013-01-13 10:24:00,17.3,9.7,30.35,ENE,68,0.9,4.0,72,0.00,,,0.00,WUHU216HW,2013-01-13 18:24:00,
2013-01-13 10:29:00,17.6,9.8,30.35,NE,45,0.7,3.6,71,0.00,,,0.00,WUHU216HW,2013-01-13 18:29:00,
2013-01-13 10:34:00,17.8,10.0,30.35,NE,45,3.1,4.3,71,0.00,,,0.00,WUHU216HW,2013-01-13 18:34:00,
2013-01-13 10:39:00,18.2,10.4,30.35,ENE,68,4.7,4.7,71,0.00,,,0.00,WUHU216HW,2013-01-13 18:39:00,
2013-01-13 10:44:00,18.5,10.6,30.35,NE,45,2.9,4.7,71,0.00,,,0.00,WUHU216HW,2013-01-13 18:44:00,
2013-01-13 10:49:00,18.7,10.5,30.35,ENE,68,4.0,5.4,70,0.00,,,0.00,WUHU216HW,2013-01-13 18:49:00,
2013-01-13 10:54:00,18.9,10.4,30.34,NNE,23,2.2,5.4,69,0.00,,,0.00,WUHU216HW,2013-01-13 18:54:00,
2013-01-13 10:59:00,19.3,10.6,30.35,East,90,1.3,5.1,69,0.00,,,0.00,WUHU216HW,2013-01-13 18:59:00,
2013-01-13 11:04:00,19.6,11.0,30.34,East,90,4.0,4.7,69,0.00,,,0.00,WUHU216HW,2013-01-13 19:04:00,
2013-01-13 11:09:00,19.8,11.2,30.34,NE,45,3.1,5.1,69,0.00,,,0.00,WUHU216HW,2013-01-13 19:09:00,
2013-01-13 11:14:00,20.2,11.2,30.34,East,90,3.6,5.1,68,0.00,,,0.00,WUHU216HW,2013-01-13 19:14:00,
2013-01-13 11:19:00,20.5,11.5,30.34,ENE,68,1.1,4.7,68,0.00,,,0.00,WUHU216HW,2013-01-13 19:19:00,
2013-01-13 11:24:00,20.9,11.6,30.34,NNE,23,0.7,4.7,67,0.00,,,0.00,WUHU216HW,2013-01-13 19:24:00,
2013-01-13 11:29:00,21.2,12.0,30.34,NNE,23,0.7,4.7,67,0.00,,,0.00,WUHU216HW,2013-01-13 19:29:00,
2013-01-13 11:34:00,21.2,11.6,30.34,NNE,23,2.5,3.4,66,0.00,,,0.00,WUHU216HW,2013-01-13 19:34:00,
2013-01-13 11:39:00,21.8,12.2,30.34,NNW,338,1.8,3.4,66,0.00,,,0.00,WUHU216HW,2013-01-13 19:39:00,
2013-01-13 11:44:00,22.1,12.4,30.33,North,0,1.6,3.4,66,0.00,,,0.00,WUHU216HW,2013-01-13 19:44:00,
2013-01-13 11:49:00,22.3,12.6,30.33,North,0,1.6,3.4,66,0.00,,,0.00,WUHU216HW,2013-01-13 19:49:00,
2013-01-13 11:54:00,22.7,13.0,30.32,ENE,68,2.0,3.6,66,0.00,,,0.00,WUHU216HW,2013-01-13 19:54:00,
2013-01-13 11:59:00,23.2,13.2,30.32,NNE,23,3.6,4.0,65,0.00,,,0.00,WUHU216HW,2013-01-13 19:59:00,
2013-01-13 12:04:00,23.4,13.7,30.32,North,0,2.2,4.0,66,0.00,,,0.00,WUHU216HW,2013-01-13 20:04:00,
2013-01-13 12:09:00,23.9,12.8,30.32,NNW,338,2.5,3.6,62,0.00,,,0.00,WUHU216HW,2013-01-13 20:09:00,
2013-01-13 12:14:00,24.1,13.7,30.32,North,0,3.4,3.6,64,0.00,,,0.00,WUHU216HW,2013-01-13 20:14:00,
2013-01-13 12:19:00,24.5,13.7,30.32,North,0,2.2,3.4,63,0.00,,,0.00,WUHU216HW,2013-01-13 20:19:00,
2013-01-13 12:24:00,25.0,13.8,30.31,NNE,23,1.6,3.4,62,0.00,,,0.00,WUHU216HW,2013-01-13 20:24:00,
2013-01-13 12:29:00,25.0,13.8,30.31,NW,315,0.7,3.4,62,0.00,,,0.00,WUHU216HW,2013-01-13 20:29:00,
2013-01-13 12:34:00,25.6,14.0,30.30,North,0,2.0,3.4,61,0.00,,,0.00,WUHU216HW,2013-01-13 20:34:00,
2013-01-13 12:39:00,25.9,14.7,30.31,North,0,0.9,3.4,62,0.00,,,0.00,WUHU216HW,2013-01-13 20:39:00,
2013-01-13 12:44:00,26.3,13.9,30.30,North,0,2.2,4.0,59,0.00,,,0.00,WUHU216HW,2013-01-13 20:44:00,
2013-01-13 12:49:00,26.3,14.2,30.30,ENE,68,1.1,4.0,60,0.00,,,0.00,WUHU216HW,2013-01-13 20:49:00,
2013-01-13 12:54:00,27.0,14.5,30.30,NNE,23,1.1,4.0,59,0.00,,,0.00,WUHU216HW,2013-01-13 20:54:00,
2013-01-13 12:59:00,27.0,14.5,30.30,NE,45,1.6,4.0,59,0.00,,,0.00,WUHU216HW,2013-01-13 20:59:00,
2013-01-13 13:04:00,27.4,15.7,30.31,NE,45,0.9,3.4,61,0.00,,,0.00,WUHU216HW,2013-01-13 21:04:00,
2013-01-13 13:09:00,28.1,15.2,30.31,NNE,23,1.8,3.1,58,0.00,,,0.00,WUHU216HW,2013-01-13 21:09:00,
2013-01-13 13:14:00,29.0,14.8,30.30,NNE,23,0.7,3.1,55,0.00,,,0.00,WUHU216HW,2013-01-13 21:14:00,
2013-01-13 13:19:00,29.9,16.0,30.30,NE,45,0.7,2.9,56,0.00,,,0.00,WUHU216HW,2013-01-13 21:19:00,
2013-01-13 13:24:00,30.6,15.8,30.30,NNE,23,1.8,1.8,54,0.00,,,0.00,WUHU216HW,2013-01-13 21:24:00,
2013-01-13 13:29:00,30.8,15.2,30.30,NE,45,1.6,1.8,52,0.00,,,0.00,WUHU216HW,2013-01-13 21:29:00,
2013-01-13 13:34:00,29.5,14.0,30.30,North,0,2.5,2.9,52,0.00,,,0.00,WUHU216HW,2013-01-13 21:34:00,
2013-01-13 13:39:00,29.2,14.1,30.30,East,90,0.2,4.0,53,0.00,,,0.00,WUHU216HW,2013-01-13 21:39:00,
2013-01-13 13:44:00,29.3,15.1,30.30,North,0,0.4,4.0,55,0.00,,,0.00,WUHU216HW,2013-01-13 21:44:00,
2013-01-13 13:49:00,29.5,14.5,30.30,North,0,1.1,2.5,53,0.00,,,0.00,WUHU216HW,2013-01-13 21:49:00,
2013-01-13 13:54:00,29.9,14.8,30.30,East,90,0.9,2.0,53,0.00,,,0.00,WUHU216HW,2013-01-13 21:54:00,
2013-01-13 13:59:00,29.9,14.8,30.30,NE,45,3.4,4.3,53,0.00,,,0.00,WUHU216HW,2013-01-13 21:59:00,
2013-01-13 14:04:00,29.5,14.0,30.30,NNE,23,2.9,4.3,52,0.00,,,0.00,WUHU216HW,2013-01-13 22:04:00,
2013-01-13 14:09:00,29.7,14.2,30.30,ENE,68,2.5,3.4,52,0.00,,,0.00,WUHU216HW,2013-01-13 22:09:00,
2013-01-13 14:14:00,29.7,14.2,30.30,NE,45,0.4,2.9,52,0.00,,,0.00,WUHU216HW,2013-01-13 22:14:00,
2013-01-13 14:19:00,30.2,14.7,30.30,NE,45,0.7,2.5,52,0.00,,,0.00,WUHU216HW,2013-01-13 22:19:00,
2013-01-13 14:24:00,30.4,14.9,30.30,NE,45,0.0,1.8,52,0.00,,,0.00,WUHU216HW,2013-01-13 22:24:00,
2013-01-13 14:29:00,31.0,14.1,30.30,NW,315,0.9,1.8,49,0.00,,,0.00,WUHU216HW,2013-01-13 22:29:00,
2013-01-13 14:34:00,30.8,13.9,30.30,East,90,3.4,3.4,49,0.00,,,0.00,WUHU216HW,2013-01-13 22:34:00,
2013-01-13 14:39:00,30.8,14.3,30.31,NE,45,4.3,4.3,50,0.00,,,0.00,WUHU216HW,2013-01-13 22:39:00,
2013-01-13 14:44:00,30.8,13.9,30.31,NNE,23,4.3,4.3,49,0.00,,,0.00,WUHU216HW,2013-01-13 22:44:00,
2013-01-13 14:49:00,30.6,12.2,30.31,ENE,68,0.4,4.5,46,0.00,,,0.00,WUHU216HW,2013-01-13 22:49:00,
2013-01-13 14:54:00,31.1,12.7,30.31,East,90,1.8,4.5,46,0.00,,,0.00,WUHU216HW,2013-01-13 22:54:00,
2013-01-13 14:59:00,31.7,12.6,30.31,NNE,23,2.5,2.9,45,0.00,,,0.00,WUHU216HW,2013-01-13 22:59:00,
2013-01-13 15:04:00,32.4,12.8,30.31,North,0,2.7,3.6,44,0.00,,,0.00,WUHU216HW,2013-01-13 23:04:00,
2013-01-13 15:09:00,33.5,12.8,30.31,North,0,1.8,3.6,42,0.00,,,0.00,WUHU216HW,2013-01-13 23:09:00,
2013-01-13 15:14:00,34.9,15.1,30.31,North,0,1.3,2.7,44,0.00,,,0.00,WUHU216HW,2013-01-13 23:14:00,
2013-01-13 15:19:00,34.0,13.2,30.31,NE,45,2.7,3.8,42,0.00,,,0.00,WUHU216HW,2013-01-13 23:19:00,
2013-01-13 15:24:00,33.1,13.4,30.31,NNE,23,3.4,3.8,44,0.00,,,0.00,WUHU216HW,2013-01-13 23:24:00,
2013-01-13 15:29:00,32.9,14.3,30.31,NNE,23,0.9,3.4,46,0.00,,,0.00,WUHU216HW,2013-01-13 23:29:00,
2013-01-13 15:34:00,32.8,14.6,30.31,North,0,2.0,3.4,47,0.00,,,0.00,WUHU216HW,2013-01-13 23:34:00,
2013-01-13 15:39:00,32.0,14.0,30.31,NNE,23,1.6,2.9,47,0.00,,,0.00,WUHU216HW,2013-01-13 23:39:00,
2013-01-13 15:44:00,31.5,14.0,30.31,NNE,23,0.0,3.8,48,0.00,,,0.00,WUHU216HW,2013-01-13 23:44:00,
2013-01-13 15:49:00,31.3,14.3,30.31,North,0,1.6,3.8,49,0.00,,,0.00,WUHU216HW,2013-01-13 23:49:00,
2013-01-13 15:54:00,31.1,14.7,30.31,NNW,338,0.9,3.4,50,0.00,,,0.00,WUHU216HW,2013-01-13 23:54:00,
2013-01-13 15:59:00,30.8,14.8,30.31,NE,45,3.1,3.4,51,0.00,,,0.00,WUHU216HW,2013-01-13 23:59:00,
2013-01-13 16:04:00,30.6,15.0,30.32,WNW,293,2.5,3.4,52,0.00,,,0.00,WUHU216HW,2013-01-14 00:04:00,
2013-01-13 16:09:00,30.2,14.7,30.32,NNW,338,1.8,3.1,52,0.00,,,0.00,WUHU216HW,2013-01-14 00:09:00,
2013-01-13 16:14:00,30.1,14.5,30.32,NW,315,3.4,3.4,52,0.00,,,0.00,WUHU216HW,2013-01-14 00:14:00,
2013-01-13 16:19:00,29.5,14.5,30.31,North,0,2.2,3.4,53,0.00,,,0.00,WUHU216HW,2013-01-14 00:19:00,
2013-01-13 16:24:00,29.2,14.6,30.32,North,0,1.8,3.4,54,0.00,,,0.00,WUHU216HW,2013-01-14 00:24:00,
2013-01-13 16:29:00,29.0,14.8,30.32,North,0,1.3,2.5,55,0.00,,,0.00,WUHU216HW,2013-01-14 00:29:00,
2013-01-13 16:34:00,28.8,15.0,30.32,North,0,1.1,2.5,56,0.00,,,0.00,WUHU216HW,2013-01-14 00:34:00,
2013-01-13 16:39:00,28.4,14.8,30.32,North,0,0.4,2.2,56,0.00,,,0.00,WUHU216HW,2013-01-14 00:39:00,
2013-01-13 16:44:00,28.3,14.9,30.31,NNW,338,1.6,1.8,57,0.00,,,0.00,WUHU216HW,2013-01-14 00:44:00,
2013-01-13 16:49:00,27.7,14.4,30.32,North,0,0.4,1.8,57,0.00,,,0.00,WUHU216HW,2013-01-14 00:49:00,
2013-01-13 16:54:00,27.5,14.2,30.31,NNE,23,0.7,1.6,57,0.00,,,0.00,WUHU216HW,2013-01-14 00:54:00,
2013-01-13 16:59:00,27.2,14.3,30.31,NNE,23,0.4,0.9,58,0.00,,,0.00,WUHU216HW,2013-01-14 00:59:00,
2013-01-13 17:04:00,27.0,14.5,30.31,NNE,23,0.2,0.7,59,0.00,,,0.00,WUHU216HW,2013-01-14 01:04:00,
2013-01-13 17:09:00,26.6,14.6,30.32,NNE,23,0.0,0.4,60,0.00,,,0.00,WUHU216HW,2013-01-14 01:09:00,
2013-01-13 17:14:00,26.3,14.2,30.32,NNE,23,0.0,0.2,60,0.00,,,0.00,WUHU216HW,2013-01-14 01:14:00,
2013-01-13 17:19:00,26.1,14.1,30.32,NNE,23,0.0,0.4,60,0.00,,,0.00,WUHU216HW,2013-01-14 01:19:00,
2013-01-13 17:24:00,25.9,14.0,30.32,North,0,0.0,0.7,60,0.00,,,0.00,WUHU216HW,2013-01-14 01:24:00,
2013-01-13 17:29:00,25.6,14.0,30.32,North,0,0.0,0.7,61,0.00,,,0.00,WUHU216HW,2013-01-14 01:29:00,
2013-01-13 17:34:00,25.4,13.8,30.32,North,0,0.0,0.4,61,0.00,,,0.00,WUHU216HW,2013-01-14 01:34:00,
2013-01-13 17:39:00,25.0,13.5,30.32,North,0,0.0,0.4,61,0.00,,,0.00,WUHU216HW,2013-01-14 01:39:00,
2013-01-13 17:44:00,24.8,14.0,30.32,North,0,0.0,0.7,63,0.00,,,0.00,WUHU216HW,2013-01-14 01:44:00,
2013-01-13 17:49:00,24.5,13.7,30.32,North,0,0.0,0.7,63,0.00,,,0.00,WUHU216HW,2013-01-14 01:49:00,
2013-01-13 17:54:00,24.3,14.5,30.32,North,0,0.4,0.9,66,0.00,,,0.00,WUHU216HW,2013-01-14 01:54:00,
2013-01-13 17:59:00,24.1,14.0,30.33,North,0,0.7,0.9,65,0.00,,,0.00,WUHU216HW,2013-01-14 01:59:00,
2013-01-13 18:04:00,23.9,14.5,30.33,North,0,0.4,0.9,67,0.00,,,0.00,WUHU216HW,2013-01-14 02:04:00,
2013-01-13 18:09:00,23.9,14.5,30.32,North,0,0.9,0.9,67,0.00,,,0.00,WUHU216HW,2013-01-14 02:09:00,
2013-01-13 18:14:00,23.8,15.0,30.33,NNE,23,1.1,1.1,69,0.00,,,0.00,WUHU216HW,2013-01-14 02:14:00,
2013-01-13 18:19:00,23.8,15.0,30.33,NNE,23,0.7,1.8,69,0.00,,,0.00,WUHU216HW,2013-01-14 02:19:00,
2013-01-13 18:24:00,23.8,15.0,30.33,NNE,23,1.1,1.8,69,0.00,,,0.00,WUHU216HW,2013-01-14 02:24:00,
2013-01-13 18:29:00,23.6,14.9,30.32,NNE,23,0.9,1.3,69,0.00,,,0.00,WUHU216HW,2013-01-14 02:29:00,
2013-01-13 18:34:00,23.4,14.8,30.32,NNE,23,0.7,1.3,69,0.00,,,0.00,WUHU216HW,2013-01-14 02:34:00,
2013-01-13 18:39:00,23.2,15.0,30.32,NE,45,0.2,1.1,70,0.00,,,0.00,WUHU216HW,2013-01-14 02:39:00,
2013-01-13 18:44:00,23.0,14.4,30.32,NNE,23,0.0,1.1,69,0.00,,,0.00,WUHU216HW,2013-01-14 02:44:00,
2013-01-13 18:49:00,22.9,15.2,30.32,NNE,23,0.7,1.3,72,0.00,,,0.00,WUHU216HW,2013-01-14 02:49:00,
2013-01-13 18:54:00,22.7,15.9,30.33,NE,45,1.6,2.2,75,0.00,,,0.00,WUHU216HW,2013-01-14 02:54:00,
2013-01-13 18:59:00,22.7,15.9,30.33,ENE,68,2.0,2.2,75,0.00,,,0.00,WUHU216HW,2013-01-14 02:59:00,
2013-01-13 19:04:00,22.7,15.9,30.34,NE,45,1.1,2.0,75,0.00,,,0.00,WUHU216HW,2013-01-14 03:04:00,
2013-01-13 19:09:00,22.7,15.9,30.34,NE,45,1.1,2.0,75,0.00,,,0.00,WUHU216HW,2013-01-14 03:09:00,
2013-01-13 19:14:00,22.5,15.1,30.34,NE,45,0.2,1.8,73,0.00,,,0.00,WUHU216HW,2013-01-14 03:14:00,
2013-01-13 19:19:00,22.3,14.9,30.34,NE,45,0.0,1.3,73,0.00,,,0.00,WUHU216HW,2013-01-14 03:19:00,
2013-01-13 19:24:00,22.0,14.6,30.34,NE,45,0.2,0.4,73,0.00,,,0.00,WUHU216HW,2013-01-14 03:24:00,
2013-01-13 19:29:00,22.0,14.6,30.34,NE,45,0.0,0.4,73,0.00,,,0.00,WUHU216HW,2013-01-14 03:29:00,
2013-01-13 19:34:00,21.8,14.4,30.34,NE,45,0.0,0.7,73,0.00,,,0.00,WUHU216HW,2013-01-14 03:34:00,
2013-01-13 19:39:00,21.6,14.6,30.34,NE,45,0.0,0.7,74,0.00,,,0.00,WUHU216HW,2013-01-14 03:39:00,
2013-01-13 19:44:00,21.4,14.7,30.33,NE,45,0.0,0.4,75,0.00,,,0.00,WUHU216HW,2013-01-14 03:44:00,
2013-01-13 19:49:00,21.2,14.2,30.33,NE,45,0.0,0.0,74,0.00,,,0.00,WUHU216HW,2013-01-14 03:49:00,
2013-01-13 19:54:00,20.9,14.8,30.34,NE,45,0.0,0.0,77,0.00,,,0.00,WUHU216HW,2013-01-14 03:54:00,
2013-01-13 19:59:00,20.5,14.4,30.34,NE,45,0.0,0.0,77,0.00,,,0.00,WUHU216HW,2013-01-14 03:59:00,
2013-01-13 20:04:00,20.3,13.9,30.33,NE,45,0.0,0.0,76,0.00,,,0.00,WUHU216HW,2013-01-14 04:04:00,
2013-01-13 20:09:00,20.0,14.1,30.34,NE,45,0.0,0.7,78,0.00,,,0.00,WUHU216HW,2013-01-14 04:09:00,
2013-01-13 20:14:00,19.8,14.0,30.33,NE,45,0.0,0.7,78,0.00,,,0.00,WUHU216HW,2013-01-14 04:14:00,
2013-01-13 20:19:00,19.8,14.6,30.33,NE,45,0.7,0.7,80,0.00,,,0.00,WUHU216HW,2013-01-14 04:19:00,
2013-01-13 20:24:00,19.8,14.3,30.33,NE,45,0.0,0.7,79,0.00,,,0.00,WUHU216HW,2013-01-14 04:24:00,
2013-01-13 20:29:00,19.4,14.5,30.33,NE,45,0.7,0.7,81,0.00,,,0.00,WUHU216HW,2013-01-14 04:29:00,
2013-01-13 20:34:00,19.1,14.1,30.34,NE,45,0.4,0.7,81,0.00,,,0.00,WUHU216HW,2013-01-14 04:34:00,
2013-01-13 20:39:00,18.9,14.2,30.34,NE,45,0.7,0.7,82,0.00,,,0.00,WUHU216HW,2013-01-14 04:39:00,
2013-01-13 20:44:00,18.9,14.2,30.34,NE,45,0.2,0.7,82,0.00,,,0.00,WUHU216HW,2013-01-14 04:44:00,
2013-01-13 20:49:00,18.9,14.0,30.34,NE,45,0.0,0.7,81,0.00,,,0.00,WUHU216HW,2013-01-14 04:49:00,
2013-01-13 20:54:00,18.5,13.9,30.34,NE,45,0.0,0.2,82,0.00,,,0.00,WUHU216HW,2013-01-14 04:54:00,
2013-01-13 20:59:00,18.4,13.7,30.35,NE,45,0.0,0.0,82,0.00,,,0.00,WUHU216HW,2013-01-14 04:59:00,
2013-01-13 21:04:00,18.4,13.4,30.35,NE,45,0.2,0.4,81,0.00,,,0.00,WUHU216HW,2013-01-14 05:04:00,
2013-01-13 21:08:00,18.4,13.4,30.35,NE,45,0.7,0.9,81,0.00,,,0.00,WUHU216HW,2013-01-14 05:08:00,
2013-01-13 21:13:00,18.4,13.4,30.34,NE,45,0.4,0.9,81,0.00,,,0.00,WUHU216HW,2013-01-14 05:13:00,
2013-01-13 21:18:00,18.4,13.4,30.34,NE,45,0.7,0.9,81,0.00,,,0.00,WUHU216HW,2013-01-14 05:18:00,
2013-01-13 21:23:00,18.0,12.8,30.34,NE,45,0.4,0.9,80,0.00,,,0.00,WUHU216HW,2013-01-14 05:23:00,
2013-01-13 21:28:00,17.8,12.9,30.34,NE,45,0.0,0.7,81,0.00,,,0.00,WUHU216HW,2013-01-14 05:28:00,
2013-01-13 21:33:00,17.6,12.7,30.34,NE,45,0.0,0.4,81,0.00,,,0.00,WUHU216HW,2013-01-14 05:33:00,
2013-01-13 21:38:00,17.3,12.6,30.34,NE,45,0.0,0.0,82,0.00,,,0.00,WUHU216HW,2013-01-14 05:38:00,
2013-01-13 21:43:00,16.9,12.3,30.35,NE,45,0.0,0.0,82,0.00,,,0.00,WUHU216HW,2013-01-14 05:43:00,
2013-01-13 21:48:00,16.9,12.3,30.35,NE,45,0.4,0.4,82,0.00,,,0.00,WUHU216HW,2013-01-14 05:48:00,
2013-01-13 21:53:00,16.7,12.7,30.35,NE,45,1.1,1.1,84,0.00,,,0.00,WUHU216HW,2013-01-14 05:53:00,
2013-01-13 21:58:00,16.9,12.8,30.35,NE,45,0.0,1.1,84,0.00,,,0.00,WUHU216HW,2013-01-14 05:58:00,
2013-01-13 22:03:00,16.9,12.6,30.35,NE,45,0.0,1.1,83,0.00,,,0.00,WUHU216HW,2013-01-14 06:03:00,
2013-01-13 22:08:00,16.6,12.3,30.35,NE,45,0.0,0.2,83,0.00,,,0.00,WUHU216HW,2013-01-14 06:08:00,
2013-01-13 22:13:00,16.2,11.6,30.35,ENE,68,1.1,1.1,82,0.00,,,0.00,WUHU216HW,2013-01-14 06:13:00,
2013-01-13 22:18:00,16.0,11.3,30.35,ENE,68,0.0,1.1,81,0.00,,,0.00,WUHU216HW,2013-01-14 06:18:00,
2013-01-13 22:23:00,15.7,10.9,30.35,ENE,68,0.0,1.1,81,0.00,,,0.00,WUHU216HW,2013-01-14 06:23:00,
2013-01-13 22:28:00,15.7,10.9,30.36,East,90,1.8,1.8,81,0.00,,,0.00,WUHU216HW,2013-01-14 06:28:00,
2013-01-13 22:33:00,15.8,11.1,30.36,ENE,68,0.4,1.8,81,0.00,,,0.00,WUHU216HW,2013-01-14 06:33:00,
2013-01-13 22:38:00,16.0,11.0,30.36,NE,45,1.8,2.2,80,0.00,,,0.00,WUHU216HW,2013-01-14 06:38:00,
2013-01-13 22:43:00,16.2,10.8,30.36,ENE,68,1.6,3.4,79,0.00,,,0.00,WUHU216HW,2013-01-14 06:43:00,
2013-01-13 22:49:00,16.2,10.5,30.36,ENE,68,2.0,4.3,78,0.00,,,0.00,WUHU216HW,2013-01-14 06:49:00,
2013-01-13 22:53:00,16.2,10.3,30.36,ENE,68,1.8,4.3,77,0.00,,,0.00,WUHU216HW,2013-01-14 06:53:00,
2013-01-13 22:58:00,16.0,9.7,30.36,ENE,68,1.6,3.6,76,0.00,,,0.00,WUHU216HW,2013-01-14 06:58:00,
2013-01-13 23:03:00,15.8,9.5,30.36,ENE,68,1.8,1.8,76,0.00,,,0.00,WUHU216HW,2013-01-14 07:03:00,
2013-01-13 23:08:00,15.7,9.4,30.36,East,90,1.8,2.0,76,0.00,,,0.00,WUHU216HW,2013-01-14 07:08:00,
2013-01-13 23:14:00,15.5,9.3,30.36,ENE,68,1.1,2.5,76,0.00,,,0.00,WUHU216HW,2013-01-14 07:14:00,
2013-01-13 23:19:00,15.5,9.3,30.36,ENE,68,0.7,3.1,76,0.00,,,0.00,WUHU216HW,2013-01-14 07:19:00,
2013-01-13 23:24:00,15.3,8.7,30.37,East,90,1.8,3.1,75,0.00,,,0.00,WUHU216HW,2013-01-14 07:24:00,
2013-01-13 23:29:00,15.3,8.7,30.37,East,90,3.8,4.5,75,0.00,,,0.00,WUHU216HW,2013-01-14 07:29:00,
2013-01-13 23:34:00,15.3,8.5,30.37,North,0,4.0,4.7,74,0.00,,,0.00,WUHU216HW,2013-01-14 07:34:00,
2013-01-13 23:39:00,15.3,8.5,30.37,ENE,68,2.7,5.1,74,0.00,,,0.00,WUHU216HW,2013-01-14 07:39:00,
2013-01-13 23:44:00,15.5,8.3,30.37,ENE,68,3.1,6.3,73,0.00,,,0.00,WUHU216HW,2013-01-14 07:44:00,
2013-01-13 23:49:00,15.5,8.3,30.37,ENE,68,3.4,6.3,73,0.00,,,0.00,WUHU216HW,2013-01-14 07:49:00,
2013-01-13 23:54:00,15.5,8.0,30.38,ENE,68,4.0,5.4,72,0.00,,,0.00,WUHU216HW,2013-01-14 07:54:00,
2013-01-13 23:59:00,15.5,7.8,30.38,East,90,4.5,5.4,71,0.00,,,0.00,WUHU216HW,2013-01-14 07:59:00,